Zurück zum Katalog

CZ-2C R/B

AktivSSO
NORAD 36089·ROCKET BODY·🇨🇳 China

Gestartet Nov 12, 2009 von Jiuquan Satellite Launch Center

Loading…

Nächste Überflüge (nächste 24 Stunden)

TLE

AktuellSource: Space-Track

Epoche: Sep 14, 2026, 22:33 UTC

1 36089U 09061B   26257.94001181  .00000148  00000-0  46526-4 0  9998
2 36089  98.4679 236.4502 0078786 126.1710 234.6806 14.52452338891113

Verfolge CZ-2C R/B in Echtzeit mit AllMySat

Download on the App Store